Flag for Germany Weather past 2 weeks in Neubrandenburg, Mecklenburg-Western Pomerania, Germany

Now
44 °F

Passing clouds.


Feels Like: 42 °F
Forecast: 36 / 57 °F
Wind: 3 mph from Southwest

Location: Greifswald

Current Time: Apr 18, 2015 at 10:25:50 PM

Latest Report: Apr 18, 2015 at 10:00 PM


Visibility: 22 mi

Pressure: 30.21 "Hg

Humidity: 60%

Dew point: 30 °F

Location of NeubrandenburgLocation

Historic Weather in Neubrandenburg — Graph

°F

Neubrandenburg temperature yesterday

Maximum temperature yesterday: 51 °F (at 2:00 PM)
Minimum temperature yesterday: 38 °F (at 6:00 AM)
Average temperature yesterday: 44 °F

Past Weeks' High & Low Weather Summary

 TemperatureHumidityPressure
High69 °F (Apr 11, 2:00 PM)100% (Apr 9, 3:00 AM)30.55 "Hg (Apr 9, 3:00 AM)
Low31 °F (Apr 4, 7:00 AM)28% (Apr 5, 4:00 PM)29.76 "Hg (Apr 15, 6:00 PM)
Average46 °F71%30.17 "Hg
* Reported Apr 3 9:00 PM — Apr 18 9:00 PM, Neubrandenburg, Weather by CustomWeather, © 2015

Note: Actual official high and low records may vary slightly from our data, if they occured in-between our weather recording intervals... More about our weather records

Advertising

Neubrandenburg weather history for previous 24 hours

 ConditionsComfort  
Time TempWeatherWind HumidityBarometerVisibility
9:00 PM
Sat, Apr 18
46 °FPassing clouds.3 mph54%30.21 "Hg19 mi
8:00 PM47 °FOvercast.3 mph53%30.22 "Hg28 mi
7:00 PM50 °FPartly sunny.6 mph47%30.23 "Hg31 mi
6:00 PM50 °FPassing clouds.5 mph43%30.23 "Hg31 mi
4:00 PM48 °FScattered clouds.7 mph44%30.27 "Hg28 mi
3:00 PM49 °FScattered clouds.6 mph49%30.28 "Hg25 mi
2:00 PM48 °FScattered clouds.3 mph53%30.29 "Hg31 mi
1:00 PM47 °FPassing clouds.5 mph49%30.29 "Hg19 mi
12:00 PM46 °FScattered clouds.5 mph52%30.30 "Hg25 mi
10:00 AM44 °FPartly sunny.6 mph63%30.29 "Hg37 mi
9:00 AM42 °FPassing clouds.6 mph71%30.27 "Hg19 mi
8:00 AM41 °FPassing clouds.3 mph78%30.26 "Hg25 mi
7:00 AM36 °FPassing clouds.2 mph93%30.25 "Hg10 mi
6:00 AM35 °FOvercast.2 mph96%30.24 "Hg5 mi
4:00 AM36 °FPassing clouds.2 mph97%30.22 "Hg7 mi
3:00 AM38 °FPassing clouds.2 mph91%30.22 "Hg16 mi
2:00 AM39 °FPassing clouds.3 mph88%30.21 "Hg37 mi
1:00 AM41 °FPassing clouds.3 mph86%30.19 "Hg31 mi
12:00 AM41 °FPassing clouds.3 mph87%30.16 "Hg37 mi
11:00 PM
Fri, Apr 17
41 °FPassing clouds.5 mph87%30.14 "Hg37 mi
10:00 PM41 °FPassing clouds.3 mph86%30.12 "Hg37 mi
Weather by CustomWeather, © 2015

See weather overviewHow to use our weather pages